GW5584 Weather Reports


time (UTC)temp
F
wind
direction
speed
knots
gust
knots
rain 1hr
in
rain 24hr
in
rain mn
in
humidity
%
barometer
mb
20260507043258 48 0 1.7 1.7 0.00 0.00 0.00 67 1019.1
20260507042754 48 359 1.7 2.6 0.00 0.00 0.00 66 1019.0
20260507042249 48 356 0.9 2.6 0.00 0.00 0.00 65 1019.2
20260507041747 48 0 1.7 3.5 0.00 0.00 0.00 65 1019.1
20260507041243 48 21 0.9 2.6 0.00 0.00 0.00 67 1019.2
20260507040741 48 7 1.7 2.6 0.00 0.00 0.00 68 1019.0
20260507040236 48 6 0.9 1.7 0.00 0.00 0.00 67 1018.9
20260507035732 48 352 1.7 1.7 0.00 0.00 0.00 65 1019.0
20260507035228 49 7 1.7 1.7 0.00 0.00 0.00 62 1019.0
20260507034726 49 36 0.0 1.7 0.00 0.00 0.00 61 1019.0
20260507034223 49 15 1.7 2.6 0.00 0.00 0.00 60 1019.0
20260507033721 49 3 0.9 2.6 0.00 0.00 0.00 65 1018.9
20260507033218 50 4 1.7 3.5 0.00 0.00 0.00 61 1019.0
20260507032716 50 349 3.5 3.5 0.00 0.00 0.00 59 1018.9
20260507032211 50 1 2.6 3.5 0.00 0.00 0.00 61 1018.8
20260507031708 50 19 1.7 2.6 0.00 0.00 0.00 61 1018.7
20260507031205 50 28 1.7 2.6 0.00 0.00 0.00 63 1018.8
20260507030701 50 29 0.9 2.6 0.00 0.00 0.00 60 1018.7
20260507030159 50 357 0.9 1.7 0.00 0.00 0.00 62 1018.6
20260507025656 50 19 0.9 1.7 0.00 0.00 0.00 63 1018.7
20260507025153 50 17 1.7 1.7 0.00 0.00 0.00 62 1018.6
20260507024651 50 10 1.7 2.6 0.00 0.00 0.00 62 1018.5
20260507024148 50 4 1.7 1.7 0.00 0.00 0.00 61 1018.4
20260507023643 50 4 1.7 1.7 0.00 0.00 0.00 64 1018.4
20260507023141 50 6 1.7 2.6 0.00 0.00 0.00 60 1018.5
20260507022638 50 12 1.7 1.7 0.00 0.00 0.00 62 1018.4
20260507022134 51 10 1.7 1.7 0.00 0.00 0.00 60 1018.4
20260507021630 51 9 0.0 1.7 0.00 0.00 0.00 60 1018.6
20260507021126 51 3 0.9 1.7 0.00 0.00 0.00 59 1018.6
20260507020624 51 7 0.9 1.7 0.00 0.00 0.00 60 1018.4
20260507020120 51 1 0.9 1.7 0.00 0.00 0.00 61 1018.4
20260507015619 51 17 0.0 1.7 0.00 0.00 0.00 60 1018.2
20260507015116 52 8 0.9 1.7 0.00 0.00 0.00 58 1018.2
20260507014612 52 0 0.0 1.7 0.00 0.00 0.00 60 1018.4
20260507014108 52 353 0.9 1.7 0.00 0.00 0.00 57 1017.9
20260507013605 52 354 0.0 3.5 0.00 0.00 0.00 57 1018.1
20260507013102 52 2 0.9 1.7 0.00 0.00 0.00 57 1018.1
20260507012559 52 6 1.7 2.6 0.00 0.00 0.00 56 1018.0
20260507012055 52 6 1.7 1.7 0.00 0.00 0.00 56 1018.0
20260507011553 53 32 0.0 0.9 0.00 0.00 0.00 57 1017.9
20260507011044 53 23 0.9 0.9 0.00 0.00 0.00 56 1017.8
20260507010543 53 4 0.0 1.7 0.00 0.00 0.00 55 1017.8
20260507010040 53 21 0.9 1.7 0.00 0.00 0.00 56 1017.8
20260507005538 54 329 0.0 1.7 0.00 0.00 0.00 53 1017.6
20260507005034 54 9 0.0 0.9 0.00 0.00 0.00 52 1017.8
20260507004531 55 0 0.0 2.6 0.00 0.00 0.00 53 1017.7
20260507004029 56 25 0.9 1.7 0.00 0.00 0.00 53 1017.7
20260507003524 56 141 0.0 1.7 0.00 0.00 0.00 52 1017.6
20260507003019 57 358 1.7 1.7 0.00 0.00 0.00 48 1017.6
20260507002516 57 330 3.5 3.5 0.00 0.00 0.00 47 1017.6
20260507002012 57 277 0.9 3.5 0.00 0.00 0.00 52 1017.6
20260507001509 57 285 0.0 2.6 0.00 0.00 0.00 51 1017.3
20260507001006 57 357 1.7 1.7 0.00 0.00 0.00 50 1017.5
20260507000502 57 135 0.0 1.7 0.00 0.00 0.00 52 1017.5
20260506235957 57 0 0.9 1.7 0.00 0.00 0.00 48 1017.3
20260506235455 58 33 1.7 2.6 0.00 0.00 0.00 50 1017.5
20260506234951 57 351 2.6 3.5 0.00 0.00 0.00 46 1017.1
20260506234449 57 2 1.7 2.6 0.00 0.00 0.00 47 1017.2
20260506233946 58 24 1.7 3.5 0.00 0.00 0.00 49 1017.0
20260506233442 58 46 0.0 4.3 0.00 0.00 0.00 49 1016.8
20260506232939 58 89 0.0 3.5 0.00 0.00 0.00 52 1016.8
20260506232435 58 304 2.6 5.2 0.00 0.00 0.00 47 1016.7
20260506231931 58 352 0.9 4.3 0.00 0.00 0.00 50 1016.5
20260506231429 58 184 1.7 5.2 0.00 0.00 0.00 50 1016.4
20260506230926 58 351 3.5 4.3 0.00 0.00 0.00 47 1016.3
20260506230422 59 256 1.7 4.3 0.00 0.00 0.00 46 1016.2
20260506225919 59 5 0.9 4.3 0.00 0.00 0.00 46 1016.3
20260506225416 59 56 3.5 5.2 0.00 0.00 0.00 47 1016.4
20260506224913 59 352 2.6 5.2 0.00 0.00 0.00 45 1016.3
20260506224411 60 312 3.5 5.2 0.00 0.00 0.00 46 1016.5
20260506223906 60 349 3.5 5.2 0.00 0.00 0.00 45 1016.3
20260506223402 60 308 1.7 4.3 0.00 0.00 0.00 46 1016.4
20260506222859 61 212 1.7 3.5 0.00 0.00 0.00 45 1016.6
20260506222355 63 265 0.9 3.5 0.00 0.00 0.00 46 1016.3
20260506221853 63 1 2.6 3.5 0.00 0.00 0.00 44 1016.3
20260506221350 62 237 1.7 3.5 0.00 0.00 0.00 44 1016.5
20260506220847 63 78 2.6 6.1 0.00 0.00 0.00 42 1016.5
20260506220343 62 38 2.6 4.3 0.00 0.00 0.00 46 1016.3
20260506215840 61 226 1.7 4.3 0.00 0.00 0.00 45 1016.3
20260506215336 60 352 1.7 2.6 0.00 0.00 0.00 47 1016.3
20260506214832 60 72 0.9 3.5 0.00 0.00 0.00 50 1016.3
20260506214329 60 322 2.6 3.5 0.00 0.00 0.00 48 1016.3
20260506213827 61 55 1.7 5.2 0.00 0.00 0.00 52 1016.4
20260506213324 61 348 2.6 2.6 0.00 0.00 0.00 48 1016.5
20260506212821 60 349 4.3 5.2 0.00 0.00 0.00 48 1016.6
20260506212317 60 17 1.7 5.2 0.00 0.00 0.00 48 1016.4
20260506211812 61 317 1.7 3.5 0.00 0.00 0.00 46 1016.8
20260506211308 61 341 3.5 4.3 0.00 0.00 0.00 46 1016.7
20260506210806 61 355 2.6 4.3 0.00 0.00 0.00 49 1017.0
20260506210302 60 339 1.7 2.6 0.00 0.00 0.00 47 1016.8
20260506205800 60 348 4.3 5.2 0.00 0.00 0.00 51 1017.0
20260506205255 59 301 2.6 4.3 0.00 0.00 0.00 47 1017.1
20260506204752 61 287 1.7 2.6 0.00 0.00 0.00 52 1017.0
20260506204250 62 58 0.9 1.7 0.00 0.00 0.00 50 1017.1
20260506203747 59 353 1.7 4.3 0.00 0.00 0.00 52 1017.5
20260506203245 59 143 8.7 9.6 0.00 0.00 0.00 53 1017.2
20260506202742 59 129 1.7 4.3 0.00 0.00 0.00 50 1017.8
20260506202238 60 116 2.6 5.2 0.00 0.00 0.00 53 1017.5
20260506201735 61 4 2.6 6.1 0.00 0.00 0.00 47 1017.3
20260506201232 62 35 2.6 4.3 0.00 0.00 0.00 48 1017.5
20260506200729 62 170 0.0 3.5 0.00 0.00 0.00 54 1017.6
20260506200225 61 354 4.3 6.1 0.00 0.00 0.00 49 1017.7
20260506195722 60 264 2.6 4.3 0.00 0.00 0.00 49 1017.7
20260506195218 60 269 1.7 4.3 0.00 0.00 0.00 49 1017.9
20260506194715 62 302 3.5 5.2 0.00 0.00 0.00 51 1017.5
20260506194212 61 22 0.0 3.5 0.00 0.00 0.00 52 1017.9
20260506193710 61 357 2.6 3.5 0.00 0.00 0.00 51 1017.9
20260506193201 60 21 1.7 7.8 0.00 0.00 0.00 51 1017.9
20260506192657 60 164 0.9 3.5 0.00 0.00 0.00 51 1018.0
20260506192154 59 331 6.1 6.1 0.00 0.00 0.00 52 1017.9
20260506191651 59 338 2.6 5.2 0.00 0.00 0.00 52 1017.9
20260506191147 60 311 3.5 5.2 0.00 0.00 0.00 53 1018.0
20260506190644 59 269 1.7 3.5 0.00 0.00 0.00 55 1018.1
20260506190141 58 173 0.0 8.7 0.00 0.00 0.00 57 1018.1
20260506185638 58 322 1.7 6.1 0.00 0.00 0.00 60 1017.9
20260506185134 57 115 1.7 2.6 0.00 0.00 0.00 60 1018.3
20260506184632 57 260 0.9 3.5 0.00 0.00 0.00 57 1018.2
20260506184129 57 30 1.7 3.5 0.00 0.00 0.00 58 1018.5
20260506183625 57 89 0.0 1.7 0.00 0.00 0.00 60 1018.6
20260506183121 57 116 0.0 1.7 0.00 0.00 0.00 65 1018.9
20260506182619 56 155 1.7 3.5 0.00 0.00 0.00 57 1018.8
20260506182116 57 98 0.9 2.6 0.00 0.00 0.00 58 1019.1
20260506181614 56 89 0.0 2.6 0.00 0.00 0.00 59 1019.1
20260506181111 56 5 1.7 2.6 0.00 0.00 0.00 59 1018.9
20260506180607 55 152 0.0 3.5 0.00 0.00 0.00 58 1019.0
20260506180104 57 19 0.0 1.7 0.00 0.00 0.00 57 1019.0
20260506175600 57 155 0.0 2.6 0.00 0.00 0.00 57 1019.2
20260506175056 56 101 1.7 4.3 0.00 0.00 0.00 63 1019.2
20260506174555 56 132 2.6 3.5 0.00 0.00 0.00 59 1019.1
20260506174051 56 314 1.7 3.5 0.00 0.00 0.00 58 1019.1
20260506173549 56 224 0.9 3.5 0.00 0.00 0.00 61 1019.1
20260506173045 55 2 1.7 4.3 0.00 0.00 0.00 57 1018.9
20260506172543 55 342 0.0 2.6 0.00 0.00 0.00 59 1019.1
20260506172039 55 275 0.9 3.5 0.00 0.00 0.00 57 1019.1
20260506171537 55 137 1.7 3.5 0.00 0.00 0.00 62 1019.1
20260506171034 55 138 1.7 2.6 0.00 0.00 0.00 63 1018.9
20260506170532 55 93 0.0 2.6 0.00 0.00 0.00 58 1019.0
20260506170029 54 86 0.0 5.2 0.00 0.00 0.00 66 1018.9
20260506165527 55 211 1.7 5.2 0.00 0.00 0.00 61 1018.9
20260506165023 54 69 2.6 4.3 0.00 0.00 0.00 62 1019.0
20260506164520 55 11 2.6 3.5 0.00 0.00 0.00 62 1019.0
20260506164018 55 274 0.9 3.5 0.00 0.00 0.00 65 1018.8
20260506163514 55 176 5.2 6.1 0.00 0.00 0.00 59 1018.4
20260506163009 54 310 2.6 6.1 0.00 0.00 0.00 62 1018.0
20260506162506 55 146 3.5 5.2 0.00 0.00 0.00 62 1018.3
20260506162003 55 20 1.7 3.5 0.00 0.00 0.00 62 1018.4
20260506161501 54 9 2.6 5.2 0.00 0.00 0.00 61 1018.4
20260506160958 55 154 3.5 5.2 0.00 0.00 0.00 63 1018.5
20260506160455 54 48 1.7 4.3 0.00 0.00 0.00 60 1018.6
20260506155952 54 311 0.9 4.3 0.00 0.00 0.00 65 1018.7
20260506155450 54 286 2.6 3.5 0.00 0.00 0.00 62 1018.5
20260506153616 53 162 4.3 7.8 0.00 0.00 0.00 67 1018.3
20260506153114 52 319 4.3 5.2 0.00 0.00 0.00 65 1018.3
20260506152611 52 133 1.7 5.2 0.00 0.00 0.00 69 1018.2
20260506152108 52 301 2.6 5.2 0.00 0.00 0.00 66 1018.2
20260506151606 52 311 2.6 5.2 0.00 0.00 0.00 68 1018.4
20260506151103 51 137 2.6 7.8 0.00 0.00 0.00 71 1018.2
20260506150600 51 245 3.5 3.5 0.00 0.00 0.00 71 1018.0
20260506150057 50 91 0.0 3.5 0.00 0.00 0.00 74 1018.2
20260506145553 49 345 3.5 4.3 0.00 0.00 0.00 73 1018.4
20260506145051 50 314 2.6 4.3 0.00 0.00 0.00 74 1018.3
20260506144547 49 60 1.7 4.3 0.00 0.00 0.00 75 1018.6
20260506144044 49 124 1.7 3.5 0.00 0.00 0.00 77 1018.3
20260506143542 49 0 2.6 4.3 0.00 0.00 0.00 76 1018.6
20260506143041 49 316 2.6 4.3 0.00 0.00 0.00 75 1018.3
20260506142538 49 182 0.9 9.6 0.00 0.00 0.00 75 1018.2
20260506142036 49 42 1.7 3.5 0.00 0.00 0.00 75 1018.1
20260506141533 48 94 1.7 4.3 0.00 0.00 0.00 76 1017.9
20260506141032 48 350 0.9 3.5 0.00 0.00 0.00 79 1017.9
20260506140529 48 302 7.0 7.0 0.00 0.00 0.00 78 1017.8
20260506140026 48 63 0.9 3.5 0.00 0.00 0.00 78 1018.1
20260506135523 48 205 1.7 4.3 0.00 0.00 0.00 81 1018.2
20260506135019 47 320 3.5 6.1 0.00 0.00 0.00 79 1018.1
20260506134515 47 359 6.1 6.1 0.00 0.00 0.00 81 1018.1
20260506134012 47 173 0.0 3.5 0.00 0.00 0.00 84 1017.8
20260506133509 47 32 2.6 3.5 0.00 0.00 0.00 84 1017.9
20260506133000 46 354 1.7 6.1 0.00 0.00 0.00 84 1017.8
20260506132457 47 315 2.6 3.5 0.00 0.00 0.00 86 1017.9
20260506131955 46 98 0.9 5.2 0.00 0.00 0.00 86 1017.8
20260506131451 46 92 1.7 2.6 0.00 0.00 0.00 87 1017.5
20260506130948 46 272 0.9 4.3 0.00 0.00 0.00 87 1017.6
20260506130445 46 323 1.7 3.5 0.00 0.00 0.00 87 1017.9
20260506125942 46 72 1.7 3.5 0.00 0.00 0.00 87 1017.8
20260506125441 46 38 0.0 2.6 0.00 0.00 0.00 87 1017.9
20260506124938 46 332 0.9 3.5 0.00 0.00 0.00 87 1018.0
20260506124436 45 335 0.9 4.3 0.00 0.00 0.00 88 1017.9
20260506123934 45 359 1.7 2.6 0.00 0.00 0.00 88 1017.6
20260506123431 45 12 0.0 3.5 0.00 0.00 0.00 89 1017.7
20260506122928 45 17 1.7 3.5 0.00 0.00 0.00 89 1017.7
20260506122425 45 26 1.7 3.5 0.00 0.00 0.00 89 1017.7
20260506121924 45 205 1.7 2.6 0.00 0.00 0.00 90 1017.8
20260506121420 45 20 1.7 5.2 0.00 0.00 0.00 90 1017.7
20260506120917 45 37 3.5 5.2 0.00 0.00 0.00 89 1017.6
20260506120415 45 50 1.7 2.6 0.00 0.00 0.00 90 1017.9
20260506115912 44 45 1.7 3.5 0.00 0.00 0.00 90 1017.6
20260506115410 45 12 1.7 4.3 0.00 0.00 0.00 91 1017.6
20260506114908 44 9 3.5 4.3 0.00 0.00 0.00 91 1017.7
20260506114405 44 9 3.5 4.3 0.00 0.00 0.00 91 1017.6
20260506113904 44 13 2.6 6.1 0.00 0.00 0.00 90 1017.5
20260506113401 44 9 1.7 2.6 0.00 0.00 0.00 91 1016.9
20260506112857 44 326 3.5 5.2 0.00 0.00 0.00 90 1016.7
20260506112355 44 357 0.0 2.6 0.00 0.00 0.00 90 1016.8
20260506111852 44 329 2.6 2.6 0.00 0.00 0.00 91 1016.7
20260506111350 44 26 1.7 3.5 0.00 0.00 0.00 91 1016.6
20260506110847 45 10 1.7 2.6 0.00 0.00 0.00 90 1016.5
20260506110344 44 345 1.7 3.5 0.00 0.00 0.00 89 1016.5
20260506105841 45 358 1.7 2.6 0.00 0.00 0.00 90 1016.5
20260506105338 44 61 0.0 2.6 0.00 0.00 0.00 89 1016.4
20260506104835 44 314 1.7 3.5 0.00 0.00 0.00 89 1016.2
20260506104333 44 17 0.9 2.6 0.00 0.00 0.00 90 1016.0
20260506103830 44 298 2.6 2.6 0.00 0.00 0.00 90 1015.8
20260506103327 44 64 1.7 1.7 0.00 0.00 0.00 90 1015.7
20260506102825 44 24 0.9 3.5 0.00 0.00 0.00 90 1015.5
20260506102323 44 18 1.7 2.6 0.00 0.00 0.00 90 1015.4
20260506101820 44 0 2.6 2.6 0.00 0.00 0.00 90 1015.2
20260506101315 44 344 1.7 3.5 0.00 0.00 0.00 89 1015.5
20260506100814 44 327 0.9 2.6 0.00 0.00 0.00 89 1015.8
20260506100312 44 347 1.7 1.7 0.00 0.00 0.00 89 1015.4
20260506095810 44 3 1.7 2.6 0.00 0.00 0.00 90 1015.3
20260506095307 45 3 1.7 1.7 0.00 0.00 0.00 91 1015.4
20260506094804 44 317 1.7 2.6 0.00 0.00 0.00 90 1015.0
20260506094302 45 0 0.9 1.7 0.00 0.00 0.00 91 1014.9
20260506093800 44 321 0.9 1.7 0.00 0.00 0.00 90 1014.8
20260506093256 44 18 0.0 1.7 0.00 0.00 0.00 90 1014.6
20260506092755 44 127 1.7 2.6 0.00 0.00 0.00 90 1014.4
20260506092252 45 51 0.0 2.6 0.00 0.00 0.00 91 1014.3
20260506091749 45 120 1.7 2.6 0.00 0.00 0.00 90 1014.4
20260506091247 44 85 1.7 2.6 0.00 0.00 0.00 90 1014.9
20260506090744 44 326 0.0 0.9 0.00 0.00 0.00 89 1015.6
20260506090241 45 326 0.0 0.9 0.00 0.00 0.00 89 1014.9
20260506085738 45 196 1.7 1.7 0.00 0.00 0.00 88 1014.8
20260506085234 45 116 0.9 1.7 0.00 0.00 0.00 89 1014.8
20260506084731 45 13 0.0 0.9 0.00 0.00 0.00 89 1014.8
20260506084227 44 293 0.9 1.7 0.00 0.00 0.00 88 1015.0
20260506083724 44 73 1.7 2.6 0.00 0.00 0.00 87 1014.6
20260506083222 44 22 0.0 1.7 0.00 0.00 0.00 88 1014.1
20260506082719 44 24 1.7 3.5 0.00 0.00 0.00 87 1013.7
20260506082214 44 149 1.7 1.7 0.00 0.00 0.00 88 1013.8
20260506081712 44 18 1.7 3.5 0.02 0.00 0.00 88 1013.5
20260506081210 44 265 0.9 1.7 0.02 0.00 0.00 89 1013.6
20260506080707 44 352 0.9 1.7 0.00 0.00 0.00 88 1013.5
20260506080203 44 21 0.0 2.6 0.00 0.00 0.00 88 1013.4
20260506073147 45 117 2.6 2.6 0.00 0.00 0.00 90 1013.4
20260506072644 44 137 1.7 3.5 0.00 0.00 0.00 89 1013.6
20260506072142 44 155 0.9 1.7 0.00 0.00 0.00 89 1013.9
20260506071639 44 6 1.7 1.7 0.00 0.00 0.00 90 1013.8
20260506071137 44 53 0.0 2.6 0.00 0.00 0.00 89 1014.2
20260506070633 44 256 0.0 1.7 0.00 0.00 0.00 89 1013.9
20260506070130 44 124 0.0 2.6 0.00 0.00 0.00 89 1014.0
20260506062108 45 23 0.0 1.7 0.00 0.00 0.00 90 1014.7
20260506061603 45 346 0.9 1.7 0.00 0.00 0.00 89 1014.6
20260506061101 45 53 1.7 1.7 0.00 0.00 0.00 89 1014.6
20260506060600 45 15 0.9 1.7 0.00 0.00 0.00 89 1014.4
20260506051028 45 335 0.0 3.5 0.00 0.00 0.00 92 1014.0
20260506050526 45 333 2.6 3.5 0.00 0.00 0.00 93 1013.8
20260506045017 45 341 2.6 2.6 0.00 0.37 0.37 94 1013.7
20260506044515 45 327 4.3 4.3 0.02 0.37 0.37 94 1013.5
20260506044011 45 20 1.7 3.5 0.02 0.37 0.37 94 1013.5
20260506043508 45 119 0.0 1.7 0.00 0.36 0.36 94 1013.6